This demonstration page uses our WeatherBlox Daily Observations layout. Learn more.

40.92945, -100.16068

Hourly Observations for June 26, 2015

Temp ( °F °C ) Dew Point ( °F °C ) Humidity (%) Winds ( mph kmh ) Pressure ( in mb ) Visibility ( mi km ) Precip ( " mm )
12:15 am 00:15 Clear 67 19.5 63 17.2 87 87 E 3 6 29.97 1015 7 11.26538 N/A
12:35 am 00:35 Clear 66 18.7 63 17 90 90 NNE 8 13 29.97 1015 10 16.0934 N/A
12:55 am 00:55 Clear 65 18.6 63 17.2 92 92 N 3 6 29.97 1015 10 16.0934 N/A
1:15 am 01:15 Clear 64 18 62 16.7 92 92 NNE 6 9 29.97 1015 10 16.0934 N/A
1:35 am 01:35 Clear 63 17.3 61 16.2 93 93 Calm 29.97 1015 10 16.0934 N/A
1:55 am 01:55 Clear 63 17 61 16 94 94 NNE 3 6 29.97 1015 10 16.0934 N/A
2:15 am 02:15 Clear 62 16.5 60 15.6 94 94 N 5 7 29.97 1015 10 16.0934 N/A
2:35 am 02:35 Clear 62 16.4 60 15.6 95 95 N 5 7 30.03 1017 10 16.0934 N/A
2:55 am 02:55 Clear 60 15.8 59 15 95 95 NNE 3 6 30.03 1017 7 11.26538 N/A
3:15 am 03:15 Clear 62 16.5 60 15.7 95 95 N 7 11 30.03 1017 10 16.0934 N/A
3:35 am 03:35 Clear 62 16.7 61 16 96 96 N 8 13 30.03 1017 10 16.0934 N/A
3:55 am 03:55 Clear 62 16.7 61 16 96 96 N 5 7 30.03 1017 10 16.0934 N/A
4:15 am 04:15 Clear 62 16.5 60 15.8 96 96 NNE 6 9 30.03 1017 7 11.26538 N/A
4:40 am 04:40 Clear 62 16.5 60 15.8 96 96 N 6 9 30.03 1017 7 11.26538 N/A
4:55 am 04:55 Clear with Mist and Fog 62 16.6 61 16 96 96 N 6 9 30.03 1017 5 8.0467 N/A
5:15 am 05:15 Clear with Mist and Fog 62 16.7 61 16 96 96 NNW 6 9 30.03 1017 5 8.0467 N/A
5:35 am 05:35 Clear with Mist and Fog 62 16.8 61 16.1 96 96 NW 5 7 30.03 1017 4 6.43736 N/A
5:55 am 05:55 Clear with Mist and Fog 62 16.7 61 16.1 96 96 WNW 5 7 30.03 1017 3 4.82802 N/A
6:15 am 06:15 Mostly Cloudy with Mist and Fog 62 16.5 60 15.8 96 96 NW 7 11 30.06 1018 1.75 2.816345 N/A
6:35 am 06:35 Cloudy with Fog 62 16.9 61 16.3 96 96 NW 7 11 30.06 1018 0.5 0.80467 N/A
6:55 am 06:55 Cloudy with Fog 64 17.8 63 17.2 96 96 NW 7 11 30.03 1017 0.25 0.402335 N/A
7:15 am 07:15 Cloudy with Fog 64 17.8 63 17.2 96 96 NNW 7 11 30.03 1017 0.5 0.80467 N/A
7:35 am 07:35 Cloudy with Fog 64 18 64 17.5 97 97 N 7 11 30.06 1018 0.5 0.80467 N/A
7:55 am 07:55 Mostly Cloudy with Mist and Fog 65 18.3 64 17.8 97 97 N 8 13 30.06 1018 3 4.82802 N/A
8:15 am 08:15 Mostly Cloudy 66 18.8 65 18.2 96 96 NNE 9 15 30.06 1018 10 16.0934 N/A
8:35 am 08:35 Mostly Cloudy 67 19.3 65 18.2 93 93 N 9 15 30.06 1018 10 16.0934 N/A
8:55 am 08:55 Partly Cloudy 68 20 64 17.5 86 86 N 12 19 30.06 1018 10 16.0934 N/A
9:15 am 09:15 Mostly Cloudy 68 20 63 17.2 84 84 NNE 8 13 30.06 1018 10 16.0934 N/A
9:35 am 09:35 Mostly Cloudy 68 20.2 63 17.4 84 84 NE 10 17 30.06 1018 10 16.0934 N/A
9:55 am 09:55 Mostly Cloudy 69 20.6 63 17.3 81 81 ENE 9 15 30.09 1019 10 16.0934 N/A
10:15 am 10:15 Mostly Cloudy 69 20.7 63 17.2 80 80 NNE 8 13 30.09 1019 10 16.0934 N/A
10:35 am 10:35 Mostly Cloudy 71 21.6 64 17.6 78 78 NNE 8 13 30.06 1018 10 16.0934 N/A
10:55 am 10:55 Partly Cloudy 71 21.7 63 17.3 76 76 NNE 13 20 30.06 1018 10 16.0934 N/A
11:15 am 11:15 Sunny 70 21.3 63 17.1 77 77 NNE 7 11 30.09 1019 10 16.0934 N/A
11:35 am 11:35 Sunny 71 21.7 64 17.6 78 78 NNE 8 13 30.06 1018 10 16.0934 N/A
11:55 am 11:55 Sunny 72 22 63 17.2 74 74 N 7 11 30.06 1018 10 16.0934 N/A
12:15 pm 12:15 Sunny 74 23.2 65 18.2 74 74 NNE 6 9 30.06 1018 10 16.0934 N/A
12:35 pm 12:35 Partly Cloudy 75 24 63 17 65 65 NNE 8 13 30.06 1018 10 16.0934 N/A
12:55 pm 12:55 Sunny 76 24.6 60 15.5 57 57 NNE 8 13 30.03 1017 10 16.0934 N/A
1:15 pm 13:15 Sunny 77 25.1 60 15.6 56 56 N 9 15 30 1016 10 16.0934 N/A
1:35 pm 13:35 Sunny 78 25.6 61 16.2 56 56 N 12 19 30 1016 10 16.0934 N/A
1:55 pm 13:55 Sunny 78 25.6 61 16.1 56 56 NNE 13 20 30 1016 10 16.0934 N/A
2:15 pm 14:15 Sunny 79 25.9 61 16 54 54 N 10 17 30 1016 10 16.0934 N/A
2:35 pm 14:35 Sunny 79 26.1 59 15.2 51 51 NNE 6 9 30 1016 10 16.0934 N/A
2:55 pm 14:55 Sunny 79 25.9 59 14.9 51 51 N 12 19 30 1016 10 16.0934 N/A
3:15 pm 15:15 Sunny 80 26.5 58 14.6 48 48 NNE 10 17 30 1016 10 16.0934 N/A
3:35 pm 15:35 Sunny 81 27.2 60 15.7 49 49 NNE 9 15 30 1016 10 16.0934 N/A
3:55 pm 15:55 Partly Cloudy 78 25.8 58 14.7 50 50 N 13 20 30 1016 10 16.0934 N/A
4:15 pm 16:15 Sunny 81 27.3 60 15.3 48 48 N 12 19 30 1016 10 16.0934 N/A
4:35 pm 16:35 Sunny 79 25.9 58 14.4 49 49 N 13 20 30 1016 10 16.0934 N/A
4:55 pm 16:55 Sunny 81 27 58 14.7 47 47 N 8 13 30 1016 10 16.0934 N/A
5:15 pm 17:15 Partly Cloudy 80 26.9 58 14.6 47 47 NNE 12 19 30 1016 10 16.0934 N/A
5:35 pm 17:35 Sunny 81 27 55 13 42 42 N 12 19 30 1016 10 16.0934 N/A
5:55 pm 17:55 Sunny 81 27 57 14.1 45 45 N 12 19 29.97 1015 10 16.0934 N/A
6:15 pm 18:15 Sunny 81 27.1 56 13.1 42 42 NNE 9 15 29.97 1015 10 16.0934 N/A
6:35 pm 18:35 Sunny 80 26.9 56 13.4 43 43 NNE 14 22 29.97 1015 10 16.0934 N/A
6:55 pm 18:55 Sunny 80 26.4 57 13.9 46 46 ENE 8 13 29.97 1015 10 16.0934 N/A
7:15 pm 19:15 Sunny 78 25.3 59 15.1 53 53 NE 7 11 29.97 1015 10 16.0934 N/A
7:35 pm 19:35 Sunny 77 24.9 60 15.3 55 55 NE 5 7 29.97 1015 10 16.0934 N/A
7:55 pm 19:55 Sunny 75 24.1 60 15.6 59 59 NE 6 9 30.03 1017 10 16.0934 N/A
8:15 pm 20:15 Sunny 73 23 61 16 65 65 NE 6 9 30.03 1017 10 16.0934 N/A
8:35 pm 20:35 Sunny 73 22.5 61 16.1 67 67 NE 5 7 30.03 1017 10 16.0934 N/A
8:55 pm 20:55 Sunny 73 22.5 60 15.8 66 66 Calm 30.03 1017 7 11.26538 N/A
9:15 pm 21:15 Partly Cloudy 72 22 61 16 69 69 Calm 30.03 1017 10 16.0934 N/A
9:35 pm 21:35 Clear 70 20.9 61 16.2 75 75 Calm 30.06 1018 10 16.0934 N/A
9:55 pm 21:55 Clear 66 19.1 60 15.6 80 80 NE 3 6 30.06 1018 7 11.26538 N/A
10:15 pm 22:15 Clear 65 18.2 60 15.6 85 85 NE 3 6 30.09 1019 10 16.0934 N/A
10:35 pm 22:35 Clear 64 17.9 60 15.6 87 87 NNE 3 6 30.09 1019 10 16.0934 N/A
10:55 pm 22:55 Clear 63 17.3 59 15.2 88 88 Calm 30.12 1020 10 16.0934 N/A
11:15 pm 23:15 Clear 64 17.5 60 15.8 90 90 Calm 30.09 1019 10 16.0934 N/A
11:35 pm 23:35 Clear 63 17.2 60 15.5 90 90 Calm 30.12 1020 10 16.0934 N/A
11:55 pm 23:55 Clear 62 16.6 59 14.9 90 90 Calm 30.12 1020 10 16.0934 N/A

Powered by AerisWeather